When you browse on this site, cookies collect data to enhance your experience and personalize the content and advertising you see.
Visit our Privacy Policy to learn more. By continuing to use the site, you agree to this use of cookies and data.
  • In Czech Republic
  • List of Countries
  • For 7 days
  • Water Temperature
  • Weather Map
  • Weather Widgets
  • user-avatar
    Login

    Hourly Weather Bissau

    Today, 17 September, Tuesday

    Time Temperature Precipitation Wind Pressure Humidity
    00:00 +27°C° 0 mm 2 mps 758 mmHg 92%
    01:00 +26°C° 0 mm 2 mps 758 mmHg 93%
    02:00 +26°C° 0 mm 2 mps 757 mmHg 93%
    03:00 +26°C° 0 mm 2 mps 757 mmHg 94%
    04:00 +26°C° 0 mm 2 mps 757 mmHg 95%
    05:00 +26°C° 0 mm 2 mps 757 mmHg 96%
    06:00 +27°C° 0 mm 2 mps 758 mmHg 92%
    07:00 +28°C° 0 mm 2 mps 758 mmHg 89%
    08:00 +29°C° 0 mm 2 mps 758 mmHg 85%
    09:00 +30°C° 0 mm 1 mps 758 mmHg 82%
    10:00 +31°C° 0 mm 1 mps 758 mmHg 79%
    11:00 +32°C° 0 mm 1 mps 758 mmHg 75%
    12:00 +32°C° 0.2 mm 1 mps 757 mmHg 72%
    13:00 +33°C° 0.2 mm 1 mps 757 mmHg 69%
    14:00 +35°C° 0.2 mm 2 mps 756 mmHg 65%
    15:00 +34°C° 0.2 mm 2 mps 756 mmHg 70%
    16:00 +33°C° 0.2 mm 3 mps 756 mmHg 75%
    17:00 +32°C° 0.2 mm 4 mps 756 mmHg 80%
    18:00 +30°C° 1.3 mm 4 mps 756 mmHg 83%
    19:00 +29°C° 1.3 mm 4 mps 757 mmHg 87%
    20:00 +28°C° 1.3 mm 3 mps 758 mmHg 91%
    21:00 +28°C° 0.2 mm 3 mps 758 mmHg 92%
    22:00 +28°C° 0.2 mm 3 mps 758 mmHg 93%
    23:00 +27°C° 0.2 mm 3 mps 758 mmHg 94%

    Tomorrow, 18 September, Wednesday

    Time Temperature Precipitation Wind Pressure Humidity
    00:00 +27°C° 0.6 mm 3 mps 758 mmHg 93%
    01:00 +27°C° 0.6 mm 3 mps 757 mmHg 92%
    02:00 +27°C° 0.6 mm 3 mps 757 mmHg 92%
    03:00 +27°C° 1.6 mm 2 mps 757 mmHg 92%
    04:00 +27°C° 1.6 mm 2 mps 757 mmHg 92%
    05:00 +27°C° 1.6 mm 2 mps 757 mmHg 92%
    06:00 +27°C° 1 mm 2 mps 758 mmHg 92%
    07:00 +27°C° 1 mm 1 mps 758 mmHg 92%
    08:00 +27°C° 1 mm 1 mps 758 mmHg 91%
    09:00 +27°C° 0.6 mm 2 mps 758 mmHg 91%
    10:00 +27°C° 0.6 mm 2 mps 758 mmHg 90%
    11:00 +27°C° 0.6 mm 3 mps 758 mmHg 90%
    12:00 +27°C° 0.1 mm 3 mps 758 mmHg 89%
    13:00 +27°C° 0.1 mm 3 mps 757 mmHg 89%
    14:00 +27°C° 0.1 mm 4 mps 757 mmHg 89%
    15:00 +27°C° 0.5 mm 3 mps 757 mmHg 90%
    16:00 +27°C° 0.5 mm 3 mps 757 mmHg 91%
    17:00 +27°C° 0.5 mm 3 mps 757 mmHg 92%
    18:00 +26°C° 0.3 mm 3 mps 758 mmHg 93%
    19:00 +26°C° 0.3 mm 2 mps 758 mmHg 94%
    20:00 +26°C° 0.3 mm 2 mps 758 mmHg 94%
    21:00 +26°C° 0 mm 2 mps 759 mmHg 94%
    22:00 +26°C° 0 mm 3 mps 759 mmHg 94%
    23:00 +26°C° 0 mm 3 mps 759 mmHg 93%

    Day after tomorrow, 19 September, Thursday

    Time Temperature Precipitation Wind Pressure Humidity
    00:00 +26°C° 0.5 mm 3 mps 758 mmHg 94%
    01:00 +26°C° 0.5 mm 3 mps 758 mmHg 95%
    02:00 +25°C° 0.5 mm 3 mps 758 mmHg 96%
    03:00 +25°C° 0.3 mm 2 mps 758 mmHg 96%
    04:00 +25°C° 0.3 mm 2 mps 758 mmHg 96%
    05:00 +25°C° 0.3 mm 2 mps 758 mmHg 96%
    06:00 +26°C° 0.1 mm 2 mps 758 mmHg 95%
    07:00 +26°C° 0.1 mm 3 mps 759 mmHg 94%
    08:00 +27°C° 0.1 mm 3 mps 759 mmHg 94%
    09:00 +28°C° 0.1 mm 3 mps 759 mmHg 87%
    10:00 +30°C° 0.1 mm 3 mps 759 mmHg 79%
    11:00 +33°C° 0.1 mm 3 mps 759 mmHg 72%
    12:00 +33°C° 0.2 mm 3 mps 758 mmHg 71%
    13:00 +33°C° 0.2 mm 4 mps 758 mmHg 70%
    14:00 +33°C° 0.2 mm 4 mps 757 mmHg 69%
    15:00 +33°C° 0.1 mm 5 mps 757 mmHg 72%
    16:00 +32°C° 0.1 mm 5 mps 757 mmHg 76%
    17:00 +30°C° 0.1 mm 5 mps 758 mmHg 79%
    18:00 +29°C° 3.1 mm 4 mps 758 mmHg 84%
    19:00 +28°C° 3.1 mm 2 mps 759 mmHg 89%
    20:00 +27°C° 3.1 mm 1 mps 759 mmHg 94%
    21:00 +27°C° 1.5 mm 1 mps 760 mmHg 94%
    22:00 +27°C° 1.5 mm 2 mps 760 mmHg 94%
    23:00 +26°C° 1.5 mm 2 mps 760 mmHg 94%

    20 September, Friday

    Time Temperature Precipitation Wind Pressure Humidity
    00:00 +26°C° 0.1 mm 3 mps 759 mmHg 94%
    01:00 +26°C° 0.1 mm 3 mps 759 mmHg 94%
    02:00 +26°C° 0.1 mm 3 mps 758 mmHg 94%
    03:00 +26°C° 0 mm 3 mps 758 mmHg 94%
    04:00 +26°C° 0 mm 3 mps 758 mmHg 94%
    05:00 +26°C° 0 mm 2 mps 759 mmHg 94%
    06:00 +27°C° 0 mm 2 mps 759 mmHg 90%
    07:00 +28°C° 0 mm 2 mps 759 mmHg 87%
    08:00 +29°C° 0 mm 2 mps 759 mmHg 83%
    09:00 +30°C° 0 mm 2 mps 759 mmHg 77%
    10:00 +31°C° 0 mm 2 mps 759 mmHg 71%
    11:00 +34°C° 0 mm 2 mps 759 mmHg 65%
    12:00 +34°C° 0 mm 3 mps 758 mmHg 67%
    13:00 +33°C° 0 mm 4 mps 758 mmHg 68%
    14:00 +33°C° 0 mm 5 mps 757 mmHg 70%
    15:00 +33°C° 0.3 mm 4 mps 757 mmHg 73%
    16:00 +32°C° 0.3 mm 4 mps 757 mmHg 76%
    17:00 +30°C° 0.3 mm 4 mps 757 mmHg 80%
    18:00 +29°C° 0.2 mm 4 mps 757 mmHg 83%
    19:00 +28°C° 0.2 mm 4 mps 758 mmHg 86%
    20:00 +27°C° 0.2 mm 4 mps 758 mmHg 90%
    21:00 +27°C° 0.3 mm 4 mps 758 mmHg 90%
    22:00 +27°C° 0.3 mm 4 mps 758 mmHg 91%
    23:00 +27°C° 0.3 mm 4 mps 759 mmHg 92%

    21 September, Saturday

    Time Temperature Precipitation Wind Pressure Humidity
    00:00 +26°C° 1.8 mm 4 mps 758 mmHg 93%
    01:00 +26°C° 1.8 mm 4 mps 758 mmHg 94%
    02:00 +26°C° 1.8 mm 4 mps 758 mmHg 96%
    03:00 +26°C° 3.7 mm 3 mps 757 mmHg 95%
    04:00 +25°C° 3.7 mm 3 mps 757 mmHg 94%
    05:00 +25°C° 3.7 mm 2 mps 757 mmHg 93%
    06:00 +25°C° 0.3 mm 2 mps 758 mmHg 92%
    07:00 +25°C° 0.3 mm 2 mps 758 mmHg 92%
    08:00 +26°C° 0.3 mm 2 mps 758 mmHg 91%
    09:00 +28°C° 0.1 mm 2 mps 758 mmHg 85%
    10:00 +30°C° 0.1 mm 1 mps 758 mmHg 78%
    11:00 +31°C° 0.1 mm 1 mps 758 mmHg 72%
    12:00 +32°C° 0.8 mm 1 mps 758 mmHg 70%
    13:00 +34°C° 0.8 mm 2 mps 757 mmHg 69%
    14:00 +34°C° 0.8 mm 2 mps 757 mmHg 67%
    15:00 +31°C° 6 mm 2 mps 757 mmHg 77%
    16:00 +29°C° 6 mm 2 mps 757 mmHg 86%
    17:00 +27°C° 6 mm 2 mps 757 mmHg 96%
    18:00 +27°C° 0.8 mm 2 mps 757 mmHg 96%
    19:00 +27°C° 0.8 mm 2 mps 758 mmHg 96%
    20:00 +26°C° 0.8 mm 2 mps 758 mmHg 96%
    21:00 +26°C° 0.9 mm 1 mps 759 mmHg 96%
    22:00 +26°C° 0.9 mm 1 mps 759 mmHg 96%
    23:00 +26°C° 0.9 mm 1 mps 759 mmHg 96%

    22 September, Sunday

    Time Temperature Precipitation Wind Pressure Humidity
    00:00 +26°C° 0.5 mm 1 mps 759 mmHg 96%
    01:00 +26°C° 0.5 mm 1 mps 758 mmHg 96%
    02:00 +26°C° 0.5 mm 1 mps 758 mmHg 96%
    03:00 +26°C° 0 mm 1 mps 758 mmHg 96%
    04:00 +26°C° 0 mm 1 mps 758 mmHg 96%
    05:00 +26°C° 0 mm 1 mps 758 mmHg 96%
    06:00 +26°C° 0 mm 1 mps 759 mmHg 93%
    07:00 +27°C° 0 mm 1 mps 759 mmHg 91%
    08:00 +28°C° 0 mm 2 mps 759 mmHg 88%
    09:00 +29°C° 0 mm 2 mps 759 mmHg 82%
    10:00 +30°C° 0 mm 2 mps 759 mmHg 76%
    11:00 +32°C° 0 mm 2 mps 759 mmHg 70%
    12:00 +33°C° 0.3 mm 3 mps 759 mmHg 70%
    13:00 +33°C° 0.3 mm 3 mps 758 mmHg 70%
    14:00 +33°C° 0.3 mm 4 mps 757 mmHg 70%
    15:00 +32°C° 0.3 mm 4 mps 757 mmHg 73%
    16:00 +32°C° 0.3 mm 4 mps 758 mmHg 76%
    17:00 +30°C° 0.3 mm 4 mps 758 mmHg 80%
    18:00 +29°C° 0 mm 3 mps 758 mmHg 82%
    19:00 +28°C° 0 mm 3 mps 759 mmHg 85%
    20:00 +28°C° 0 mm 2 mps 759 mmHg 87%
    21:00 +27°C° 0 mm 2 mps 760 mmHg 89%
    22:00 +27°C° 0 mm 2 mps 760 mmHg 90%
    23:00 +27°C° 0 mm 2 mps 760 mmHg 91%
    Show more